User: anonymous   Login
Location: Treviso
(45.6669°N, 12.2430°E)
Time: 06:46:19
(UTC+01:00)
Language:

ISS - Orbit

View from above orbital plane
View from above orbital plane
View from above satellite
View from above satellite

Ground track
Ground track

The orbit data is extracted from the following two-line orbital elements,

1 25544U 98067A   19078.54938805  .00016717  00000-0  10270-3 0  9015
2 25544  51.6381  86.8572 0003797 120.4298 239.7230 15.52828319  1320
Epoch (UTC): 19 March 2019 13:11:07
Eccentricity: 0.0003797
inclination: 51.6381°
perigee height: 406 km
apogee height: 411 km
right ascension of ascending node: 86.8572°
argument of perigee: 120.4298°
revolutions per day: 15.52828319
mean anomaly at epoch: 239.7230°
orbit number at epoch: 132

The dashed part of the orbit path shows where the satellite is in the earth's shadow,  

DLR